[[{"header":{"parameterUnit":"m.s-1","parameterCategory":1,"la1":30.2991,"la2":30.254,"lo1":-89.0895,"lo2":-89.0444,"dy":0.0017,"dx":0.0017,"nx":28,"ny":28,"refTime":"2024-06-30T09:00:00:Z","depth":0,"parameterNumber":2,"parameterNumberName":"U-component_of_WINDS"},"data":[0,0,0,0,0,0,0,0,0,0,0,0,0,0,0,0,0,0,0,0,0,0,0,0,0,0,0,0,0,0,0,0,0,0,0,0,0,0,0,0,0,0,0,0,0,0,0,0,0,0,0,0,0,0,0,0,0,0,1.7021,1.702,0,1.693,1.6929,1.6928,1.6687,1.6682,1.6677,1.6672,1.6588,1.659,1.6593,0,0,0,0,0,0,0,0,0,0,0,0,0,1.6997,1.6998,1.7021,1.702,1.7019,1.693,1.6929,1.6928,1.6688,1.6682,1.6675,1.667,1.6587,1.659,1.6593,0,0,0,0,0,0,0,0,0,0,0,0,0,1.6967,1.6999,1.7021,1.6888,1.6875,1.693,1.6929,1.6927,1.6689,1.6682,1.6674,1.6667,1.6586,1.659,1.6594,1.6773,0,0,1.6605,1.6607,0,0,0,0,0,0,0,0,1.6969,1.6968,1.6909,1.6898,1.6883,1.6812,1.6889,1.6876,1.6691,1.676,1.6672,1.6663,1.6669,1.6666,1.6666,1.6769,1.6765,1.6606,1.6608,1.661,1.6611,0,0,0,0,0,0,0,1.6972,1.6971,1.6985,1.6909,1.6893,1.6836,1.6823,1.6886,1.676,1.6754,1.6736,1.6728,1.6661,1.6663,1.6662,1.6764,1.6606,1.6609,1.6612,1.6613,1.7013,1.7021,0,0,0,0,0,0,1.6991,1.6974,1.6988,1.6982,1.6908,1.6843,1.6829,1.6843,1.6758,1.6738,1.6735,1.6717,1.666,1.6658,1.6659,1.6866,1.661,1.6613,1.6616,1.7005,1.7015,1.7024,0,0,0,0,0,0,1.6992,1.6995,1.6992,1.6973,1.6969,1.6852,1.687,1.6845,1.6847,1.6744,1.6721,1.676,1.6654,1.6653,1.6746,1.6859,1.6615,1.6619,1.6995,1.7008,1.7019,1.728,0,0,0,0,0,0,1.6992,1.6996,1.7061,1.6977,1.6971,1.708,1.6876,1.6849,1.6853,1.6829,1.6761,1.6742,1.6648,1.6742,1.675,1.686,1.6622,1.6984,1.7001,1.7015,1.7261,1.73,1.7334,0,0,0,0,0,1.6992,1.714,1.7066,1.7069,1.7049,1.7086,1.7083,1.6968,1.6863,1.6929,1.6863,1.6745,1.6845,1.6753,1.6761,1.6874,1.6977,1.6996,1.7014,1.7245,1.7293,1.7333,0,0,0,0,0,0,1.7244,1.7126,1.7043,1.7167,1.7138,1.7045,1.7125,1.7022,1.7025,1.7003,1.6863,1.685,1.6964,1.6927,1.6827,1.7044,1.6892,1.6913,1.7065,1.7109,1.7145,1.7153,1.6625,0,0,0,0,0,1.7313,1.735,1.7246,1.7366,1.7356,1.7244,1.7256,1.717,1.7135,1.7123,1.7063,1.7038,1.7063,1.7083,1.7101,1.7253,1.7238,1.7335,1.7371,1.7401,1.7423,1.7505,1.7548,1.7085,1.7085,1.7085,0,0,1.7458,1.7398,1.7431,1.7416,1.7383,1.7429,1.7235,1.7291,1.7324,1.7132,1.7217,1.7173,1.7135,1.726,1.7312,1.7233,1.7546,1.7425,1.745,1.7455,1.7528,1.7572,1.7612,1.7098,1.7095,1.7093,0,0,1.7746,1.7703,1.7799,1.777,1.7722,1.7647,1.7671,1.7593,1.7556,1.7638,1.7496,1.7535,1.758,1.756,1.7556,1.7837,1.773,1.7847,1.8038,1.8119,1.8156,1.8188,1.8292,1.8331,1.7867,1.7868,1.7869,0,1.7934,1.7993,1.7863,1.7928,1.7927,1.7752,1.7851,1.783,1.7792,1.7798,1.7708,1.7763,1.7725,1.7845,1.7914,1.7914,1.794,1.7856,1.816,1.8191,1.8219,1.8317,1.8357,1.7883,1.7881,1.788,1.7878,0,1.8228,1.8272,1.8356,1.8321,1.8329,1.8412,1.8297,1.8321,1.8235,1.817,1.8258,1.8205,1.8211,1.8231,1.8148,1.8341,1.8294,1.8185,1.8029,1.828,1.837,1.8407,1.7904,1.7899,1.7894,1.7891,0,0,1.8675,1.8566,1.86,1.8583,1.8518,1.8551,1.8626,1.8628,1.8654,1.8634,1.8697,1.874,1.8639,1.8634,1.8547,1.8618,1.885,1.85,1.8497,1.8571,1.9064,1.915,1.9195,1.8776,1.8783,1.8788,1.9068,0,1.895,1.9069,1.8955,1.9099,1.9141,1.8975,1.9041,1.901,1.8952,1.8981,1.8916,1.8951,1.8812,1.8809,1.8871,1.8809,1.8948,1.8786,1.8838,1.8842,1.8858,1.9241,1.9332,1.9599,1.9102,1.9108,1.9112,0,1.9287,1.928,1.9429,1.9355,1.9368,1.943,1.9424,1.9452,1.9415,1.9367,1.9363,1.9256,1.9328,1.9174,1.9274,1.9167,1.9181,1.9154,1.9161,1.9166,1.8996,1.9261,1.9681,1.9724,1.9166,1.9162,1.9158,0,1.9604,1.9632,1.9724,1.9715,1.9631,1.9678,1.9646,1.96,1.961,1.9606,1.9612,1.9617,1.9622,1.963,1.9529,1.9424,1.9644,1.948,1.9611,1.9615,1.9669,1.9668,2.0102,1.9671,1.967,1.967,1.9669,0,1.9926,2.0024,1.9866,1.9924,2.003,1.9898,2.0008,1.9959,1.992,1.9969,1.9825,1.9874,1.9735,1.9771,1.9692,1.979,1.9792,1.9759,1.9738,1.9775,1.978,1.9786,1.9766,1.968,1.9678,1.9676,1.9674,0,2.0299,2.0196,2.0288,2.0199,2.018,2.0263,2.0189,2.0241,2.0172,2.0235,2.0243,2.0136,2.0171,2.0069,2.0088,2.0035,2.0179,2.0125,2.0192,2.0177,2.0317,2.0307,2.0774,2.0831,2.0359,2.0364,2.0368,0,2.0514,2.0585,2.0505,2.0525,2.05,2.0535,2.0543,2.0416,2.0432,2.0396,2.0454,2.0475,2.0486,2.055,2.0477,2.0492,2.044,2.0603,2.0442,2.0478,2.0449,2.0448,2.0457,2.0638,2.0644,2.0649,2.0652,0,2.0907,2.0852,2.0868,2.0869,2.0882,2.0877,2.0861,2.0887,2.0751,2.0777,2.0809,2.0817,2.0836,2.0862,2.086,2.083,2.0723,2.0703,2.0735,2.0776,2.0814,2.08,2.0288,2.0694,2.069,2.0687,2.0685,2.0683,2.121,2.1267,2.122,2.1244,2.1218,2.1208,2.1253,2.1189,2.1212,2.1216,2.114,2.1189,2.1152,2.1139,2.112,2.1159,2.1085,2.113,2.1143,2.1157,2.1183,2.0803,2.1158,2.1156,2.1155,2.1154,2.1153,0,2.16,2.1561,2.1584,2.1566,2.1586,2.1476,2.1454,2.148,2.1524,2.1497,2.151,2.1549,2.1573,2.1502,2.1516,2.1562,2.1513,2.1571,2.1569,2.1565,2.1246,2.1219,2.161,2.161,2.161,2.161,2.161,2.161,2.1806,2.1898,2.1838,2.1918,2.1877,2.1923,2.192,2.1911,2.1889,2.1938,2.1957,2.1908,2.1865,2.1875,2.1894,2.1872,2.1887,2.1963,2.1926,2.1631,2.1586,2.1544,2.1518,2.1966,2.1967,2.2241,2.2244,2.2246]},{"header":{"parameterUnit":"m.s-1","parameterCategory":1,"la1":30.2991,"la2":30.254,"lo1":-89.0895,"lo2":-89.0444,"dy":0.0017,"dx":0.0017,"nx":28,"ny":28,"refTime":"2024-06-30T09:00:00:Z","depth":0,"parameterNumber":3,"parameterNumberName":"V-component_of_WINDS"},"data":[0,0,0,0,0,0,0,0,0,0,0,0,0,0,0,0,0,0,0,0,0,0,0,0,0,0,0,0,0,0,0,0,0,0,0,0,0,0,0,0,0,0,0,0,0,0,0,0,0,0,0,0,0,0,0,0,0,0,-1.3657,-1.366,0,-1.3917,-1.392,-1.3922,-1.4047,-1.4047,-1.4047,-1.4047,-1.4315,-1.4322,-1.4329,0,0,0,0,0,0,0,0,0,0,0,0,0,-1.3269,-1.3276,-1.3657,-1.366,-1.3663,-1.3916,-1.392,-1.3923,-1.4047,-1.4047,-1.4047,-1.4047,-1.4312,-1.4321,-1.4329,0,0,0,0,0,0,0,0,0,0,0,0,0,-1.3474,-1.3278,-1.3656,-1.3755,-1.3767,-1.3915,-1.392,-1.3924,-1.4047,-1.4047,-1.4047,-1.4046,-1.4309,-1.432,-1.4331,-1.4401,0,0,-1.4364,-1.4368,0,0,0,0,0,0,0,0,-1.3462,-1.3488,-1.3738,-1.3749,-1.3762,-1.3949,-1.3881,-1.4084,-1.4047,-1.3941,-1.4047,-1.4046,-1.4193,-1.4214,-1.4263,-1.4413,-1.4425,-1.4365,-1.4371,-1.4376,-1.4379,0,0,0,0,0,0,0,-1.3448,-1.3478,-1.376,-1.3741,-1.3756,-1.3787,-1.3816,-1.392,-1.4065,-1.395,-1.396,-1.3988,-1.42,-1.4252,-1.427,-1.4429,-1.4364,-1.4374,-1.4381,-1.4385,-1.465,-1.465,0,0,0,0,0,0,-1.3417,-1.3465,-1.3751,-1.3767,-1.3609,-1.3794,-1.3827,-1.3889,-1.4064,-1.409,-1.3988,-1.3993,-1.4234,-1.4257,-1.428,-1.4374,-1.4376,-1.4386,-1.4392,-1.4649,-1.465,-1.465,0,0,0,0,0,0,-1.3409,-1.3442,-1.3741,-1.3619,-1.3659,-1.3801,-1.387,-1.3894,-1.3947,-1.4093,-1.4119,-1.4015,-1.4234,-1.4265,-1.437,-1.4385,-1.4391,-1.4401,-1.4649,-1.4649,-1.465,-1.4561,0,0,0,0,0,0,-1.3397,-1.3438,-1.3466,-1.3619,-1.3665,-1.3826,-1.3871,-1.39,-1.3965,-1.3974,-1.4125,-1.415,-1.4237,-1.4353,-1.438,-1.44,-1.4409,-1.4648,-1.4649,-1.465,-1.4564,-1.4559,-1.4555,0,0,0,0,0,-1.3383,-1.3431,-1.3466,-1.35,-1.3703,-1.3826,-1.3853,-1.3951,-1.3965,-1.3995,-1.4089,-1.4145,-1.4378,-1.4362,-1.4395,-1.4418,-1.4647,-1.4649,-1.465,-1.4566,-1.456,-1.4555,0,0,0,0,0,0,-1.3277,-1.3453,-1.3494,-1.3593,-1.3694,-1.3847,-1.3887,-1.3942,-1.4041,-1.4046,-1.4164,-1.4197,-1.4291,-1.4365,-1.4344,-1.4494,-1.4518,-1.4526,-1.4443,-1.4439,-1.4435,-1.4416,-1.4418,0,0,0,0,0,-1.3265,-1.335,-1.3499,-1.3572,-1.362,-1.3744,-1.3802,-1.3868,-1.3978,-1.4021,-1.4123,-1.4227,-1.4324,-1.4385,-1.4483,-1.4574,-1.4609,-1.4606,-1.4602,-1.4597,-1.4603,-1.4657,-1.4658,-1.4654,-1.4654,-1.4654,0,0,-1.3242,-1.3348,-1.3395,-1.3553,-1.3639,-1.3725,-1.378,-1.3868,-1.3933,-1.4035,-1.414,-1.4218,-1.4342,-1.4441,-1.4489,-1.4505,-1.4611,-1.4599,-1.4594,-1.4603,-1.4659,-1.4659,-1.4659,-1.4655,-1.4655,-1.4655,0,0,-1.3243,-1.3332,-1.3403,-1.3487,-1.3616,-1.3698,-1.3714,-1.3859,-1.3915,-1.4022,-1.41,-1.4179,-1.4343,-1.4429,-1.4493,-1.4525,-1.4581,-1.4553,-1.4532,-1.4583,-1.4583,-1.4584,-1.4596,-1.4599,-1.4558,-1.4558,-1.4558,0,-1.3199,-1.333,-1.3432,-1.3516,-1.3584,-1.3678,-1.3751,-1.3828,-1.3982,-1.4027,-1.4042,-1.4249,-1.434,-1.446,-1.4467,-1.4516,-1.4539,-1.4537,-1.4575,-1.4577,-1.4579,-1.4592,-1.4596,-1.4554,-1.4554,-1.4555,-1.4555,0,-1.3269,-1.3358,-1.34,-1.3545,-1.3617,-1.3695,-1.3809,-1.387,-1.3929,-1.401,-1.4118,-1.4229,-1.435,-1.4383,-1.4443,-1.4512,-1.4518,-1.4552,-1.4578,-1.4573,-1.4587,-1.4593,-1.4548,-1.4549,-1.455,-1.4551,0,0,-1.3213,-1.3412,-1.3426,-1.3493,-1.3641,-1.3713,-1.3794,-1.3912,-1.3962,-1.4064,-1.4136,-1.4272,-1.4305,-1.4378,-1.4448,-1.4493,-1.4511,-1.4522,-1.4527,-1.4517,-1.4594,-1.4568,-1.4572,-1.4548,-1.455,-1.4551,-1.4584,0,-1.3236,-1.3386,-1.3479,-1.3592,-1.3677,-1.3767,-1.3839,-1.3937,-1.4014,-1.4097,-1.4183,-1.4277,-1.4313,-1.4358,-1.4406,-1.4498,-1.4528,-1.4497,-1.4617,-1.462,-1.4584,-1.4579,-1.4552,-1.4578,-1.459,-1.4591,-1.4592,0,-1.3283,-1.3382,-1.3502,-1.3641,-1.368,-1.3742,-1.3857,-1.3935,-1.4049,-1.4102,-1.4182,-1.4252,-1.4343,-1.436,-1.4486,-1.4463,-1.4517,-1.457,-1.4574,-1.459,-1.4606,-1.4596,-1.4589,-1.4593,-1.4601,-1.46,-1.46,0,-1.323,-1.3394,-1.3488,-1.3542,-1.3705,-1.3747,-1.3817,-1.393,-1.3995,-1.4095,-1.4138,-1.4248,-1.4308,-1.4392,-1.449,-1.4493,-1.4607,-1.4632,-1.4654,-1.4651,-1.4675,-1.4672,-1.4677,-1.4707,-1.4707,-1.4707,-1.4707,0,-1.3247,-1.3317,-1.3466,-1.3524,-1.3606,-1.3712,-1.379,-1.3868,-1.3967,-1.4042,-1.4127,-1.4195,-1.432,-1.4404,-1.4481,-1.4574,-1.46,-1.4646,-1.4666,-1.4639,-1.4633,-1.4678,-1.4679,-1.4708,-1.4708,-1.4708,-1.4708,0,-1.3203,-1.3305,-1.3413,-1.3558,-1.3596,-1.365,-1.3775,-1.3834,-1.3915,-1.4008,-1.4036,-1.4163,-1.4266,-1.4371,-1.4511,-1.4563,-1.4654,-1.4681,-1.4615,-1.4626,-1.4642,-1.464,-1.4677,-1.4688,-1.4708,-1.4708,-1.4708,0,-1.3207,-1.3264,-1.3414,-1.3469,-1.3537,-1.3626,-1.3692,-1.3798,-1.3863,-1.3996,-1.404,-1.4148,-1.4242,-1.4402,-1.4507,-1.4614,-1.4644,-1.465,-1.4661,-1.4632,-1.4646,-1.4641,-1.4648,-1.4646,-1.4645,-1.4645,-1.4644,0,-1.3204,-1.3251,-1.3343,-1.3452,-1.3527,-1.3619,-1.3713,-1.3754,-1.3879,-1.3948,-1.4053,-1.4125,-1.4267,-1.4374,-1.4493,-1.4566,-1.4626,-1.464,-1.4651,-1.4625,-1.4585,-1.4607,-1.4605,-1.4639,-1.4639,-1.464,-1.464,-1.464,-1.3186,-1.324,-1.3353,-1.3452,-1.3534,-1.362,-1.3683,-1.377,-1.386,-1.3983,-1.4041,-1.4146,-1.4259,-1.4425,-1.4496,-1.4581,-1.4598,-1.4613,-1.4618,-1.462,-1.4614,-1.4569,-1.4603,-1.4603,-1.4604,-1.4604,-1.4604,0,-1.3187,-1.3265,-1.3354,-1.3483,-1.356,-1.3608,-1.3715,-1.3777,-1.3869,-1.3968,-1.4057,-1.4178,-1.4282,-1.4394,-1.4505,-1.4552,-1.4582,-1.4577,-1.4576,-1.4592,-1.4592,-1.4572,-1.4551,-1.4551,-1.4551,-1.4551,-1.4551,-1.4551,-1.3197,-1.3291,-1.3352,-1.3487,-1.3565,-1.3669,-1.3725,-1.3805,-1.3884,-1.4016,-1.4102,-1.4174,-1.4279,-1.4398,-1.4496,-1.4526,-1.4563,-1.4551,-1.4589,-1.4588,-1.4592,-1.4595,-1.4577,-1.4558,-1.4558,-1.4582,-1.4582,-1.4582]}]]